CAPE
0 0 0 0 0 8 10 24 21 25 14 11 9 0 0 0 0 100 188 341 479 1124 899 940 1057 818 817 722 571 435 82 96 248 319 262 408 405 330 174 105 63 35 19
0 0 0 0 0 0 0 1 2 10 19 14 26 0 5 0 0 53 186 362 501 1073 1197 855 1134 855 826 571 458 191 201 173 232 189 216 227 331 262 141 83 31 35 5
0 0 0 0 0 0 0 0 0 0 0 0 0 0 0 0 0 53 239 451 658 933 1168 1095 863 778 871 455 473 445 200 199 128 167 252 263 229 173 120 52 51 20 3
0 0 0 0 0 0 0 0 0 0 0 0 2 19 33 2 43 90 268 587 868 1010 789 1140 542 605 423 190 292 236 49 139 170 163 212 251 192 162 135 56 28 10 6
0 0 0 0 0 0 0 0 0 0 0 0 17 27 5 26 92 425 534 756 841 814 936 914 550 635 632 584 620 72 23 85 214 150 272 172 155 149 161 53 25 11 0
0 0 0 0 0 0 0 0 0 0 3 16 111 170 22 31 89 394 546 740 805 715 700 638 645 760 458 490 477 247 86 119 120 173 159 171 204 191 135 25 21 1 0
0 0 0 0 0 0 0 0 0 0 7 2 11 26 92 284 323 285 578 695 563 293 533 782 819 688 498 587 199 130 86 105 170 117 186 201 221 159 93 27 4 0 0
0 0 0 0 0 0 0 0 0 0 1 2 57 27 193 236 229 461 131 322 470 574 503 822 405 441 316 118 93 170 158 228 174 130 229 188 202 146 39 2 0 1 2
1 0 0 0 0 0 0 0 0 1 29 0 0 127 175 94 212 252 385 313 480 614 430 575 300 216 104 10 77 190 207 154 89 54 86 165 210 64 35 3 15 2 1
2 0 0 0 0 0 0 0 0 7 37 99 38 118 1 114 289 306 398 488 699 509 339 367 105 106 75 82 155 102 95 64 29 45 165 165 119 69 15 21 7 3 0
3 0 0 0 0 0 0 0 0 0 0 16 141 158 150 155 145 452 65 433 344 309 394 370 169 78 14 18 48 76 41 76 109 213 221 280 115 46 19 15 2 0 0
1 0 0 0 0 0 0 0 0 0 0 0 30 128 188 196 134 235 398 281 189 279 257 176 123 58 16 10 81 56 34 209 167 146 174 26 201 155 24 9 1 0 4
0 0 0 0 0 0 0 0 0 0 0 14 12 95 84 62 159 287 463 257 146 154 125 76 72 32 65 80 126 109 115 91 79 86 91 65 66 29 72 51 7 8 0
0 0 0 0 0 0 0 0 3 0 0 9 41 46 47 37 227 348 181 255 25 45 54 20 10 40 60 54 70 87 65 76 12 43 51 41 15 13 10 35 44 13 0
0 0 0 0 0 0 0 0 21 30 8 6 19 52 87 30 150 223 108 303 134 116 41 42 22 35 67 100 71 38 13 0 2 0 10 13 7 0 0 0 0 0 0
0 0 0 0 0 0 0 0 24 68 71 4 24 123 61 88 62 36 83 88 18 93 6 17 12 49 72 38 64 4 8 2 0 0 0 0 0 0 0 0 0 0 0
0 0 0 0 0 0 0 26 35 47 54 39 6 76 39 47 78 14 16 47 14 41 45 66 61 55 45 41 22 9 0 0 0 0 0 0 0 0 0 0 0 0 0
0 0 0 0 0 0 0 0 25 56 50 32 33 33 19 8 37 1 18 16 15 27 27 29 27 29 28 2 0 0 0 0 0 0 0 0 0 0 0 0 0 0 0
0 0 0 0 0 0 0 0 0 0 19 12 30 13 17 11 13 15 25 32 6 25 35 33 5 1 0 1 0 0 0 0 0 0 0 0 0 0 0 0 0 0 0
0 0 0 0 0 0 0 0 0 0 9 5 3 0 5 8 5 9 14 9 13 6 9 27 3 0 0 0 0 3 1 0 0 0 0 0 0 0 0 0 0 0 0
0 0 0 0 0 0 0 0 1 1 5 4 1 0 0 1 0 4 6 5 8 12 18 12 0 0 0 1 7 0 0 0 0 0 0 0 0 0 0 0 0 0 0
0 0 0 0 0 0 0 0 0 2 14 19 1 1 0 0 0 0 2 1 9 23 3 23 10 15 0 0 0 0 0 0 0 0 0 0 0 0 0 0 0 0 0
0 0 0 0 0 0 0 0 0 3 4 6 1 2 4 0 1 0 0 0 12 9 1 4 23 0 0 0 0 0 0 0 0 0 0 0 0 0 0 0 0 0 0
0 0 0 0 0 1 0 1 1 1 3 8 1 0 1 8 0 14 20 9 0 0 0 0 0 0 0 0 0 0 0 0 0 0 0 0 0 0 0 0 0 0 0
0 0 0 0 0 1 1 0 4 2 3 4 0 0 1 2 0 0 2 0 0 0 0 0 0 0 0 0 0 0 0 2 0 0 0 0 0 0 0 0 0 0 0
0 0 0 0 0 0 1 0 1 1 2 2 0 0 0 0 0 0 0 0 0 0 0 0 0 0 0 0 0 0 0 0 0 0 0 0 0 0 0 0 0 0 0
CIN
-0 -0 -0 -0 -0 -62 -74 -51 -56 -49 -40 -44 -15 -0 -0 -0 -0 -24 -22 -12 -5 -0 -1 -0 -0 -0 -0 -0 -1 -1 -8 -4 -0 -2 -7 -0 -0 -0 -5 -39 -116 -215 -280
-0 -0 -0 -0 -66 -0 -0 -13 -22 -47 -39 -25 -30 -0 -31 -0 -0 -66 -33 -29 -16 -1 -0 -0 -0 -0 -0 -0 -0 -2 -2 -0 -0 -2 -5 -16 -0 -2 -44 -134 -226 -280 -306
-0 -0 -0 -0 -0 -0 -0 -0 -0 -0 -0 -0 -0 -0 -0 -0 -0 -89 -43 -31 -29 -14 -3 -1 -1 -0 -0 -0 -1 -0 -0 -0 -2 -5 -2 -0 -7 -55 -112 -185 -245 -264 -0
-0 -0 -0 -0 -0 -0 -0 -0 -0 -0 -0 -0 -10 -57 -62 -12 -79 -82 -60 -39 -21 -16 -26 -3 -10 -1 -30 -4 -33 -9 -23 -0 -0 -1 -0 -0 -36 -78 -137 -193 -223 -251 -300
-0 -0 -0 -0 -0 -0 -0 -0 -0 -0 -0 -6 -53 -65 -17 -107 -81 -48 -49 -34 -29 -35 -27 -11 -21 -1 -5 -0 -0 -1 -14 -3 -0 -0 -0 -11 -75 -110 -100 -239 -224 -232 -0
-0 -0 -0 -0 -0 -0 -0 -0 -0 -0 -53 -56 -32 -32 -107 -142 -103 -53 -49 -41 -30 -36 -40 -46 -21 -7 -9 -0 -0 -0 -2 -0 -0 -0 -12 -41 -36 -46 -140 -207 -178 -0 -0
-0 -0 -0 -0 -0 -0 -0 -0 -0 -0 -51 -55 -57 -81 -57 -49 -57 -61 -37 -28 -30 -64 -39 -11 -9 -8 -3 -0 -0 -0 -21 -0 -0 -3 -4 -13 -30 -123 -175 -149 -99 -0 -0
-0 -0 -0 -0 -0 -0 -0 -0 -0 -2 -30 -83 -55 -53 -15 -30 -42 -27 -65 -42 -20 -14 -29 -0 -16 -5 -0 -1 -0 -0 -0 -0 -0 -4 -0 -0 -11 -72 -115 -0 -0 -0 -0
-46 -0 -0 -0 -0 -0 -0 -0 -0 -8 -53 -0 -0 -43 -11 -15 -11 -13 -9 -22 -7 -4 -18 -0 -8 -6 -5 -41 -1 -0 -0 -0 -1 -35 -28 -43 -0 -58 -98 -0 -128 -0 -0
-95 -0 -0 -0 -0 -0 -0 -0 -0 -86 -80 -53 -42 -52 -10 -57 -12 -2 -1 -0 -0 -5 -18 -1 -20 -2 -3 -2 -0 -0 -5 -14 -51 -39 -12 -8 -9 -28 -42 -70 -0 -0 -0
-114 -0 -0 -0 -0 -0 -0 -0 -0 -0 -0 -87 -51 -50 -52 -55 -81 -25 -35 -4 -14 -15 -3 -0 -0 -6 -1 -7 -6 -0 -16 -3 -1 -0 -0 -0 -6 -30 -21 -69 -0 -0 -0
-35 -0 -0 -0 -0 -0 -0 -0 -0 -0 -0 -0 -107 -81 -53 -44 -49 -53 -10 -13 -29 -6 -2 -0 -0 -0 -14 -2 -0 -7 -17 -3 -5 -2 -5 -71 -7 -0 -28 -0 -0 -0 -118
-0 -0 -0 -0 -0 -0 -0 -0 -0 -0 -0 -81 -103 -73 -92 -95 -66 -59 -12 -29 -4 -0 -0 -4 -2 -0 -1 -0 -0 -4 -11 -20 -22 -23 -29 -41 -26 -55 -2 -1 -6 -7 -0
-0 -0 -0 -0 -0 -0 -0 -0 -133 -0 -0 -56 -64 -90 -114 -83 -52 -54 -59 -15 -14 -5 -5 -13 -12 -0 -0 -0 -1 -12 -24 -45 -56 -40 -31 -55 -94 -61 -17 -15 -11 -10 -0
-0 -0 -0 -0 -0 -0 -0 -0 -108 -91 -94 -93 -101 -104 -66 -67 -44 -67 -82 -44 -36 -0 -5 -0 -0 -0 -0 -0 -4 -28 -27 -0 -93 -0 -57 -71 -67 -33 -0 -0 -0 -0 -0
-0 -0 -0 -0 -0 -0 -0 -0 -60 -31 -27 -36 -92 -53 -74 -60 -51 -59 -101 -85 -74 -29 -24 -32 -0 -0 -0 -1 -2 -49 -72 -59 -13 -0 -0 -0 -0 -0 -0 -0 -0 -0 -0
-0 -0 -0 -0 -0 -0 -0 -71 -43 -37 -35 -38 -43 -57 -86 -88 -49 -64 -72 -51 -69 -77 -11 -0 -0 -0 -0 -6 -22 -71 -8 -0 -0 -0 -0 -0 -0 -0 -0 -0 -0 -0 -0
-0 -0 -0 -0 -0 -0 -0 -4 -66 -42 -37 -47 -78 -68 -84 -88 -59 -19 -36 -48 -27 -28 -13 -23 -1 -3 -0 -2 -0 -40 -29 -0 -0 -0 -0 -0 -0 -0 -0 -0 -0 -0 -0
-0 -0 -0 -0 -0 -0 -0 -0 -0 -13 -55 -52 -35 -54 -66 -59 -39 -30 -10 -3 -5 -10 -17 -16 -3 -0 -0 -0 -0 -0 -0 -0 -0 -0 -0 -0 -0 -0 -0 -0 -0 -0 -0
-0 -0 -0 -0 -0 -0 -0 -0 -0 -0 -51 -14 -5 -9 -57 -36 -42 -41 -39 -50 -28 -7 -3 -5 -14 -0 -0 -0 -9 -106 -11 -0 -0 -0 -0 -0 -0 -0 -0 -0 -0 -0 -0
-0 -0 -0 -0 -0 -0 -0 -0 -0 -0 -4 -15 -10 -0 -0 -7 -0 -14 -50 -49 -27 -23 -11 -37 -0 -0 -0 -71 -78 -0 -0 -0 -0 -0 -0 -0 -0 -0 -0 -0 -0 -0 -0
-0 -0 -0 -0 -0 -0 -0 -0 -0 -0 -36 -32 -12 -0 -0 -0 -0 -0 -78 -66 -72 -56 -63 -40 -121 -101 -0 -0 -0 -0 -0 -0 -0 -0 -0 -0 -0 -0 -0 -0 -0 -0 -0
-0 -0 -0 -0 -0 -0 -0 -0 -0 -0 -3 -43 -0 -6 -19 -0 -16 -0 -0 -0 -91 -94 -90 -197 -139 -0 -0 -0 -0 -0 -0 -0 -0 -0 -0 -0 -0 -0 -0 -0 -0 -0 -0
-0 -0 -0 -0 -0 -0 -0 -90 -42 -0 -0 -50 -4 -0 -36 -61 -45 -96 -86 -90 -0 -75 -0 -0 -0 -0 -0 -0 -0 -0 -0 -0 -0 -0 -0 -0 -0 -0 -0 -0 -0 -0 -0
-0 -0 -0 -0 -0 -0 -0 -0 -71 -0 -0 -0 -0 -0 -94 -83 -188 -0 -61 -0 -0 -0 -0 -0 -0 -0 -0 -0 -0 -0 -0 -229 -0 -0 -0 -0 -0 -0 -0 -0 -0 -0 -0
-0 -0 -0 -0 -0 -0 -0 -0 -119 -114 -111 -106 -7 -0 -0 -0 -0 -0 -0 -0 -0 -0 -0 -0 -0 -0 -0 -0 -0 -0 -0 -0 -0 -0 -0 -0 -0 -0 -0 -0 -0 -0 -0
Wind_Speed
5 4 5 3 3 3 3 2 2 2 3 4 4 5 5 5 5 3 3 13 14 15 14 13 15 20 22 24 24 24 21 19 18 20 21 18 18 17 18 17 17 16 15
5 4 4 4 4 3 2 2 2 2 3 3 4 5 5 4 5 5 4 5 13 13 12 13 15 20 24 26 26 25 23 21 20 20 19 21 18 18 18 19 18 17 17
7 5 4 4 3 3 4 2 2 2 2 3 5 5 4 5 5 5 4 5 5 10 10 11 14 18 21 23 28 28 25 23 21 19 17 18 18 18 19 18 18 17 16
7 5 4 4 3 3 2 3 2 2 2 3 3 3 3 3 5 5 5 4 4 3 4 9 7 10 13 22 26 32 26 21 21 22 20 19 17 17 18 18 17 16 16
5 5 3 3 3 2 3 2 1 2 2 3 3 3 3 4 5 3 5 5 3 2 2 4 6 8 15 23 33 31 31 26 23 22 22 20 19 18 17 18 17 15 16
5 4 3 3 3 2 2 2 2 3 2 2 2 3 1 2 2 3 4 3 1 0 3 4 3 5 16 24 29 31 29 27 22 24 22 21 19 18 18 18 17 15 15
4 4 3 3 3 3 3 4 3 4 3 2 2 1 1 2 1 2 1 2 1 1 1 2 3 5 9 23 26 29 28 25 24 23 19 16 17 18 18 19 17 15 14
4 4 4 3 4 2 3 4 4 2 2 2 2 2 2 2 2 1 1 1 1 2 2 6 7 10 9 10 16 25 24 26 25 22 18 14 13 16 18 17 15 14 13
3 4 4 3 3 3 3 3 4 4 3 2 2 3 2 2 1 2 2 2 3 3 2 8 8 8 11 11 16 17 24 26 25 21 18 16 14 16 16 14 14 13 12
3 3 4 4 3 3 3 4 3 2 3 3 1 2 1 2 3 2 2 1 4 4 7 6 8 8 9 10 15 26 25 24 24 21 20 19 17 16 13 11 11 10 10
3 3 3 4 4 3 3 4 4 3 1 3 3 2 1 1 2 3 2 2 2 2 4 7 8 8 7 13 12 16 20 19 18 18 20 18 17 15 14 13 11 10 8
2 3 4 3 3 3 3 3 4 4 3 2 2 2 2 2 2 2 3 3 4 2 4 6 9 7 11 10 16 18 20 12 14 14 15 14 12 13 13 12 11 9 9
2 2 3 3 2 3 4 4 4 3 3 2 3 2 2 1 2 2 5 3 3 3 2 5 9 9 10 9 10 17 18 12 12 12 10 12 11 10 11 10 9 9 6
3 2 3 3 3 4 3 3 2 3 3 3 4 3 2 3 2 5 5 5 3 3 4 3 7 11 10 9 11 15 10 13 12 12 9 8 11 11 8 9 8 6 5
2 2 2 4 4 4 3 3 2 3 3 3 4 4 2 3 2 4 5 6 5 4 2 5 3 11 9 8 10 7 7 10 10 9 9 8 9 9 10 8 7 7 6
2 3 3 4 4 4 4 5 4 3 4 3 3 6 5 4 5 5 5 5 5 6 4 2 6 11 9 8 11 8 7 8 9 7 7 8 8 8 7 7 8 6 5
3 3 3 4 4 5 4 5 3 3 5 5 5 6 7 7 6 7 5 6 7 8 9 6 7 10 11 11 8 6 5 3 4 7 6 6 7 8 8 6 6 4 5
2 3 4 5 5 4 4 5 4 5 6 5 6 7 8 7 8 7 7 8 8 7 9 13 5 4 11 10 6 6 4 3 4 6 7 7 7 7 6 4 2 3 4
4 3 4 5 5 5 5 4 5 6 6 5 6 7 8 10 9 8 8 8 8 8 8 7 5 3 6 5 4 3 3 3 2 5 7 6 4 2 1 2 2 1 4
4 4 4 6 5 5 5 5 5 6 6 6 7 6 7 10 11 9 8 9 9 9 9 9 7 6 4 3 2 3 3 1 2 1 2 3 5 4 5 4 3 5 5
4 4 6 6 5 5 4 6 7 8 6 7 7 6 7 10 10 10 8 8 10 8 7 7 5 3 3 3 4 3 3 2 1 1 2 4 4 5 6 8 9 8 8
5 4 5 6 6 4 9 9 8 7 6 7 8 8 7 10 9 12 12 9 8 8 8 6 3 5 5 4 3 4 4 3 2 1 4 7 5 7 6 6 7 8 7
4 5 4 4 5 5 8 10 9 5 5 6 8 8 8 6 9 10 11 12 10 10 4 4 7 4 4 6 6 4 3 3 2 2 4 6 3 7 5 6 6 6 7
4 4 4 4 5 4 10 9 10 7 6 7 7 7 9 9 7 9 9 6 4 3 1 1 3 4 3 7 6 4 4 6 4 4 1 4 2 3 3 5 6 8 11
3 2 3 5 6 5 7 10 8 7 8 9 7 6 8 8 8 10 7 6 3 2 5 4 4 3 5 10 8 6 4 4 3 1 2 3 3 4 3 4 6 16 18
4 4 4 3 6 6 6 9 7 5 7 5 4 5 9 8 8 7 5 4 4 4 5 6 5 6 6 5 7 3 6 6 4 2 2 2 2 3 4 2 7 8 6
Wind_Direction
220 220 225 222 230 226 228 233 242 243 219 210 187 199 216 236 250 255 258 270 269 272 257 256 224 215 200 182 158 148 150 154 162 150 150 143 135 134 136 138 127 127 126
218 217 224 222 224 207 220 226 233 212 218 190 198 210 224 235 248 252 257 259 261 272 254 257 240 220 202 178 159 158 164 158 156 151 146 142 137 142 144 135 134 132 135
219 221 220 214 216 204 217 213 214 182 188 195 218 218 228 246 252 250 252 250 256 267 253 251 249 221 201 175 166 160 151 152 145 148 146 139 142 145 141 139 133 135 134
212 211 214 226 197 204 202 209 184 194 216 203 211 228 233 249 260 254 255 244 244 255 271 267 249 234 177 193 169 145 145 150 153 157 151 143 144 140 136 141 131 143 141
200 201 203 220 200 197 204 193 190 182 194 204 224 235 244 249 259 266 239 232 225 223 267 218 265 190 157 137 149 152 148 155 158 156 145 144 144 141 142 127 142 155 138
203 193 198 201 190 194 190 167 177 194 187 192 214 226 273 273 262 255 246 195 200 90 305 262 190 171 180 157 152 153 154 151 151 151 144 144 147 148 133 145 159 154 143
197 189 199 189 182 198 194 182 172 180 190 155 128 88 64 21 322 227 184 131 128 35 325 180 115 137 153 157 145 148 154 151 154 139 133 139 149 138 150 160 163 149 151
200 179 183 189 175 178 191 180 169 140 153 169 132 126 81 5 58 69 69 135 182 77 180 138 114 118 134 136 145 149 155 150 138 132 132 137 141 156 164 161 158 156 152
195 190 177 167 175 173 184 177 176 161 138 173 195 140 135 180 132 25 78 93 132 110 114 124 123 126 133 137 150 160 147 135 131 129 141 139 165 167 169 158 163 156 154
114 144 170 166 175 167 178 184 172 164 143 148 190 209 159 159 148 136 60 151 112 130 136 116 120 121 128 142 134 129 130 128 136 151 150 167 169 167 155 168 163 160 163
119 139 144 150 157 179 186 176 161 189 173 159 158 162 143 281 69 128 132 142 77 78 126 136 136 127 116 115 123 125 130 133 152 157 161 168 167 164 162 169 168 171 180
99 112 139 159 157 164 159 170 179 180 185 185 203 158 158 136 180 134 125 133 139 95 90 115 127 132 122 117 129 133 133 137 138 151 155 143 174 160 169 177 175 180 191
102 113 128 136 117 140 152 145 163 161 178 176 188 195 118 147 225 124 131 106 122 109 131 90 135 119 122 121 134 131 133 126 129 135 138 153 138 126 186 180 185 196 198
129 137 123 118 102 104 129 140 141 160 157 136 145 140 197 177 198 138 139 120 133 92 57 90 96 124 114 125 141 129 132 134 141 134 138 142 149 187 161 189 197 192 215
130 112 104 91 81 89 101 132 134 163 131 136 132 166 156 123 152 104 120 137 134 144 120 89 91 107 118 115 108 107 132 129 128 144 152 162 163 170 178 175 191 207 217
118 109 80 89 91 92 94 102 113 115 120 113 129 137 117 134 112 106 105 101 95 122 109 72 95 115 123 101 108 104 107 119 142 150 163 168 171 179 175 182 202 218 236
146 148 118 108 112 106 110 110 108 113 105 117 106 110 106 115 110 100 104 96 99 107 106 103 106 117 111 112 103 98 116 130 146 151 163 174 180 188 186 198 223 239 264
157 171 133 118 118 119 120 127 130 93 99 89 103 101 96 103 101 99 98 100 108 103 114 119 119 123 125 122 116 121 147 128 139 154 166 186 189 194 203 208 252 294 318
140 131 122 120 127 129 120 108 103 95 87 87 96 104 118 117 110 110 112 114 108 107 110 105 103 82 101 107 105 110 115 105 100 145 183 189 182 187 192 89 71 17 344
134 127 124 122 122 121 116 108 97 95 90 88 90 98 105 115 121 123 113 109 111 114 118 122 107 85 91 93 98 128 133 139 114 112 99 72 70 88 90 101 80 46 27
127 126 117 119 126 121 121 116 107 112 91 90 88 89 78 100 109 121 126 123 124 124 124 119 107 104 113 144 165 153 106 93 90 121 114 47 55 69 66 70 80 73 71
129 127 128 135 138 128 137 124 127 129 115 112 102 98 103 97 96 99 103 91 111 132 129 130 125 143 146 146 142 132 125 157 156 68 96 69 73 83 83 88 76 84 85
139 132 121 132 135 135 143 144 127 129 112 110 114 121 114 114 113 107 91 94 101 107 101 125 140 144 143 165 144 134 158 157 121 99 103 90 88 95 81 73 61 71 56
143 137 132 136 128 127 152 136 121 122 118 109 119 123 125 115 102 114 115 117 112 84 75 138 161 174 175 159 156 154 145 114 100 80 24 115 165 109 92 84 39 50 51
126 138 144 138 131 144 144 134 122 126 127 126 123 119 126 120 126 124 116 117 87 93 46 111 89 102 144 141 143 124 125 121 89 130 63 108 153 141 138 94 66 47 43
134 130 123 141 130 145 161 149 134 125 120 120 90 106 99 120 131 134 107 127 150 161 136 114 110 82 95 149 150 77 151 142 134 91 113 99 124 174 156 79 56 51 54